Regional Weather Roundup
Issued by NWS

Home | Current Version | Previous Version | Graphics & Text | Print | Product List | Glossary On
Versions: 1 2 3 4 5 6 7 8 9 10 11 12 13 14 15 16 17 18 19 20 21 22 23 24 25 26 27 28 29 30 31 32 33 34 35 36 37 38 39 40 41 42 43 44 45 46 47 48 49 50
000
ASUS43 KDTX 122210
RWRMI
MICHIGAN HOURLY REGIONAL WEATHER ROUNDUP
NATIONAL WEATHER SERVICE DETROIT/PONTIAC MI
ISSUED BY NATIONAL WEATHER SERVICE GRAND RAPIDS MI
500 PM EST TUE DEC 12 2017

NOTE: "FAIR" INDICATES FEW OR NO CLOUDS BELOW 12,000 FEET WITH NO
SIGNIFICANT WEATHER AND/OR OBSTRUCTION TO VISIBILITY.

MIZ047>049-052>055-059>063-066>070-074>076-081>083-122300-
SOUTHEAST LOWER MICHIGAN

CITY           SKY/WX    TMP DP  RH WIND       PRES   REMARKS
ADRIAN         MOCLDY    19   1  45 NW12G22   29.89R WCI   7
ALMA           CLOUDY    18   6  60 NW12      29.89S WCI   5
ANN ARBOR      LGT SNOW  16   7  67 W13G23    29.87R WCI   2
BAD AXE        CLOUDY    14   1  56 NW10G21   29.82R WCI   2
DETROIT CITY   LGT SNOW  17   5  59 NW14G22   29.86R WCI   3
DETROIT        MOCLDY    19   3  49 NW13      29.87R WCI   6
FLINT          CLOUDY    16   3  56 NW16      29.86R WCI   1
GROSSE ILE     MOCLDY    18   4  53 NW16      29.87R WCI   3
HILLSDALE      PTCLDY    18   1  49 NW16G22   29.86R WCI   3
HOWELL         CLOUDY    16   6  64 NW7       29.85S WCI   7

CITY           SKY/WX    TMP DP  RH WIND       PRES   REMARKS
JACKSON        CLOUDY    19   2  47 W12       29.87R WCI   7
LANSING        MOCLDY    17  10  74 NW12      29.90R WCI   4
MASON          LGT SNOW  18  10  72 NW13G21   29.88R WCI   4
MONROE         MOCLDY    18   8  65 NW10      29.88R WCI   6
MT. CLEMENS    PTCLDY    16   4  61 NW13      29.83R WCI   2
PONTIAC        MOCLDY    16   4  59 NW17G26   29.82R WCI   0
PORT HOPE        N/A     16   6  65 NW24G38   29.79R WCI  -2
PORT HURON     MOCLDY    14   1  57 NW14G23   29.83R WCI  -1
TRI CITIES     CLEAR     14   3  61 NW12      29.88R WCI   0
YPSILANTI      MOCLDY    19   5  54 NW16      29.87R WCI   4
$$
MIZ043>046-050>051-056>058-064>065-071>073-077>080-122300-
SOUTHWEST LOWER MICHIGAN

CITY           SKY/WX    TMP DP  RH WIND       PRES   REMARKS
BATTLE CREEK   MOCLDY    18   5  57 NW8       29.91R WCI   8
BENTON HARBOR  LGT SNOW  23  12  62 NW15G29   29.98R WCI  10
BIG RAPIDS     LGT SNOW  16  12  84 NW7       29.88R WCI   6
COLDWATER      CLEAR     18   8  63 NW12G17   29.91R WCI   6
HOLLAND        LGT SNOW  20  13  74 N13G22    29.95S WCI   7
GRAND RAPIDS   LGT SNOW  18  11  74 NW15      29.93R WCI   4
KALAMAZOO      LGT SNOW  18  13  80 NW9       29.93S WCI   7
MARSHALL       PTCLDY    18   0  45 NW10G18   29.89R WCI   6
MOUNT PLEASANT MOCLDY    18   5  57 NW6       29.88R WCI   9
MUSKEGON       LGT SNOW  19  10  68 N9        29.97R WCI   8
STURGIS        FLURRIES  18  13  80 NW7       29.92R WCI   9
$$
MIZ016>042-122300-
NORTHERN LOWER MICHIGAN

CITY           SKY/WX    TMP DP  RH WIND       PRES   REMARKS
ALPENA         MOCLDY    11   2  67 NW16G29   29.84R WCI  -6
BEAVER ISLAND  CLOUDY    15   5  65 NW8G21    29.92R WCI   4
BELLAIRE       CLOUDY    16   7  69 N6        29.91R WCI   7
CADILLAC       LGT SNOW  14   9  81 NW5       29.84R WCI   6
CHARLEVOIX     CLOUDY    16   6  63 NW18G26   29.93R WCI   0
GAYLORD        LGT SNOW   9   3  77 NW5       29.82S WCI   1
HOUGHTON LAKE  CLOUDY    12   2  64 NW12G24   29.84R WCI  -2
MANISTEE       LGT SNOW  18   9  68 NW12      29.93S WCI   5
OSCODA         CLEAR     11  -4  51 NW12G20   29.83R WCI  -3
PELLSTON       CLOUDY    12   3  67 N10       29.90R WCI  -1
TRAVERSE CITY  SNOW      17  13  84 N9        29.90S VSB 1/2 WCI   6
LUDINGTON      CLOUDY    19   7  60 NW10G21   29.95R WCI   7
$$
MIZ007>008-015-122300-
EASTERN UPPER MICHIGAN

CITY           SKY/WX    TMP DP  RH WIND       PRES   REMARKS
KINROSS        FLURRIES   5  -1  76 N6        29.87S WCI  -6
MACKINAC ISLAN MOCLDY    11   1  64 NW14G22   29.88R WCI  -5
NEWBERRY       CLOUDY     9   4  82 NW5       29.89R WCI   0
S. S. MARIE    CLEAR      6  -4  63 NW8       29.88S WCI  -7
$$
MIZ004>006-011>014-085-122300-
CENTRAL UPPER MICHIGAN

CITY           SKY/WX    TMP DP  RH WIND       PRES   REMARKS
MANISTIQUE     CLOUDY    13   4  68 N6        29.92R WCI   4
ESCANABA       PTCLDY    13   1  59 NW3       29.96S
MENOMINEE      CLEAR     15   2  56 NW6       29.98S WCI   6
SAWYER-GWINN   MOCLDY    10   3  72 N7        29.90F WCI   0
$$
MIZ001>003-009>011-084-122300-
WESTERN UPPER MICHIGAN

CITY           SKY/WX    TMP DP  RH WIND       PRES   REMARKS
IRON MOUNTAIN  CLOUDY    13   3  64 NW7       29.90F WCI   3
HOUGHTON       CLOUDY    11   4  73 NW5       29.91S WCI   3
COPPER HARBOR    N/A     14   7  73 N8        29.94F WCI   3
$$

ABBREVIATIONS USED IN REMARKS
   TC - TEMPERATURE IN CELSIUS
  WCI - WIND CHILL INDEX
   HX - HEAT INDEX
  VSB - VISIBILITY




USA.gov is the U.S. government's official web portal to all federal, state and local government web resources and services.